CHINASAT 2A (ZX 2A)

Last updated on Aug. 3, 2020, 5:32 a.m. UTC

1 38352U 12028A   20215.76716003 -.00000310  00000-0  00000-0 0  9999
2 38352   0.0111 209.2229 0000982 194.5556 282.4438  1.00266589 30131
UTC
Height (km)
Latitude
Longitude
Inclination
Orbital Period
UTC large
Height (km)
Speed (km/s)
/
Latitude / Longitude
Inclination (degrees)
Orbital Period (minutes)
Azimuth
Elevation
Range (km)
Doppler Factor
iOS Compass Heading
iOS Angle

Next 30 passes for location: Hong Kong

Rise time Rise Azimuth (degrees) Set time Set Azimuth (degrees) Duration Max altitude (degrees)

No matching passes for this satellites